Rensselaer, IN

6:36 PM CST on February 24, 2017 (GMT -0600)
Jasper County

Weather History for KRZL - December, 2013

Change the Weather History Date:

Monday, December 23, 2013

  Actual Average (KIKK) Record (KIKK)
Temperature  
Mean Temperature 18 °F -  
Max Temperature 30 °F 30 °F 60 °F (2015)
Min Temperature 5 °F 16 °F -17 °F (1989)
Degree Days  
Heating Degree Days 48    
Moisture  
Dew Point 16 °F    
Average Humidity 86    
Maximum Humidity 93    
Minimum Humidity 68    
Precipitation  
Precipitation 0.00 in - - ()
Sea Level Pressure  
Sea Level Pressure 30.34 in    
Wind  
Wind Speed 14 mph (WSW)    
Max Wind Speed 18 mph    
Max Gust Speed 26 mph    
Visibility 9 miles    
Events Snow    
Averages and records for this station are not official NWS values.
T = Trace of Precipitation, MM = Missing Value Source: NWS Daily Summary

Daily Weather History Graph

Daily Weather History Graph

Search for Another Location

Airport or City:

Trip Planner

Search our weather history database for the weather conditions in past years. The results will help you decide how hot, cold, wet, or windy it might be!

Date:

Astronomy

Dec. 23, 2013 Rise Set
Actual Time 7:11 AM CST 4:24 PM CST
Civil Twilight 6:39 AM CST 4:56 PM CST
Nautical Twilight 6:05 AM CST 5:30 PM CST
Astronomical Twilight 5:31 AM CST 6:04 PM CST
Moon 10:37 PM CST (12/23) 10:33 AM CST (12/23)
Length of Visible Light 10h 16m
Length of Day
9h 13m
Waning Gibbous, 68% of the Moon is Illuminated
Dec 23
Waning Gibbous
Dec 25
Last Quarter
Jan 1
New
Jan 7
First Quarter
Jan 15
Full

Hourly Weather History & Observations

Time (CST) Temp. Windchill Dew Point Humidity Pressure Visibility Wind Dir Wind Speed Gust Speed Precip Events Conditions
12:15 AM 30.2 °F 20.8 °F 28.4 °F 93% 30.12 in 10.0 mi West 11.5 mph - N/A   Overcast
12:35 AM 30.2 °F 21.9 °F 28.4 °F 93% 30.13 in 10.0 mi West 9.2 mph - N/A   Overcast
12:55 AM 30.2 °F 20.2 °F 28.4 °F 93% 30.13 in 10.0 mi West 12.7 mph 18.4 mph N/A   Overcast
1:15 AM 30.2 °F 19.8 °F 28.4 °F 93% 30.14 in 10.0 mi West 13.8 mph - N/A   Overcast
1:35 AM 30.2 °F 20.2 °F 28.4 °F 93% 30.15 in 10.0 mi West 12.7 mph 20.7 mph N/A   Overcast
1:55 AM 28.4 °F 17.0 °F 26.6 °F 93% 30.16 in 10.0 mi West 15.0 mph - N/A   Overcast
2:15 AM 28.4 °F 19.1 °F 26.6 °F 93% 30.16 in 10.0 mi West 10.4 mph - N/A   Overcast
2:35 AM 28.4 °F 16.6 °F 26.6 °F 93% 30.18 in 10.0 mi WSW 16.1 mph 21.9 mph N/A   Overcast
2:55 AM 28.4 °F 16.2 °F 26.6 °F 93% 30.19 in 10.0 mi West 17.3 mph - N/A   Overcast
3:15 AM 28.4 °F 18.5 °F 26.6 °F 93% 30.19 in 7.0 mi West 11.5 mph 16.1 mph N/A Snow Light Snow
3:35 AM 26.6 °F 15.7 °F 24.8 °F 93% 30.20 in 7.0 mi WSW 12.7 mph - N/A Snow Light Snow
3:55 AM 26.6 °F 14.3 °F 24.8 °F 93% 30.20 in 7.0 mi West 16.1 mph 20.7 mph N/A   Overcast
4:15 AM 26.6 °F 15.2 °F 23.0 °F 86% 30.20 in 7.0 mi WSW 13.8 mph - N/A   Overcast
4:35 AM 26.6 °F 15.7 °F 23.0 °F 86% 30.21 in 7.0 mi WSW 12.7 mph - N/A Snow Light Snow
4:55 AM 24.8 °F 11.9 °F 23.0 °F 93% 30.22 in 7.0 mi West 16.1 mph 19.6 mph N/A   Overcast
5:15 AM 24.8 °F 12.9 °F 23.0 °F 93% 30.23 in 7.0 mi West 13.8 mph - N/A   Overcast
5:35 AM 24.8 °F 13.4 °F 23.0 °F 93% 30.24 in 7.0 mi West 12.7 mph 19.6 mph N/A Snow Light Snow
5:55 AM 24.8 °F 11.5 °F 23.0 °F 93% 30.26 in 7.0 mi West 17.3 mph 20.7 mph N/A   Overcast
6:15 AM 23.0 °F 11.1 °F 21.2 °F 93% 30.27 in 10.0 mi WSW 12.7 mph 18.4 mph N/A   Overcast
6:35 AM 23.0 °F 9.6 °F 21.2 °F 93% 30.28 in 7.0 mi WSW 16.1 mph 19.6 mph N/A   Overcast
6:55 AM 23.0 °F 9.6 °F 21.2 °F 93% 30.29 in 7.0 mi WSW 16.1 mph 19.6 mph N/A   Overcast
7:15 AM 23.0 °F 11.7 °F 21.2 °F 93% 30.30 in 10.0 mi West 11.5 mph - N/A   Overcast
7:35 AM 23.0 °F 10.1 °F 21.2 °F 93% 30.31 in 10.0 mi West 15.0 mph - N/A   Overcast
7:55 AM 23.0 °F 9.2 °F 21.2 °F 93% 30.32 in 10.0 mi West 17.3 mph - N/A   Overcast
8:15 AM 23.0 °F 11.1 °F 21.2 °F 93% 30.33 in 10.0 mi WSW 12.7 mph - N/A   Overcast
8:35 AM 23.0 °F 10.1 °F 21.2 °F 93% 30.33 in 10.0 mi WSW 15.0 mph - N/A   Overcast
8:55 AM 23.0 °F 10.6 °F 21.2 °F 93% 30.34 in 7.0 mi WSW 13.8 mph - N/A   Overcast
9:15 AM 23.0 °F 11.1 °F 21.2 °F 93% 30.35 in 10.0 mi WSW 12.7 mph - N/A   Overcast
9:35 AM 21.2 °F 7.8 °F 19.4 °F 93% 30.36 in 7.0 mi WSW 15.0 mph - N/A   Overcast
9:55 AM 21.2 °F 8.3 °F 19.4 °F 93% 30.36 in 7.0 mi SW 13.8 mph - N/A   Overcast
10:15 AM 21.2 °F 8.3 °F 19.4 °F 93% 30.37 in 7.0 mi SW 13.8 mph - N/A   Overcast
10:35 AM 21.2 °F 8.3 °F 19.4 °F 93% 30.37 in 10.0 mi WSW 13.8 mph 19.6 mph N/A   Overcast
10:55 AM 21.2 °F 8.9 °F 19.4 °F 93% 30.37 in 10.0 mi WSW 12.7 mph - N/A   Overcast
11:15 AM 21.2 °F 7.3 °F 19.4 °F 93% 30.36 in 10.0 mi WSW 16.1 mph - N/A   Overcast
11:35 AM 21.2 °F 7.8 °F 19.4 °F 93% 30.36 in 10.0 mi WSW 15.0 mph - N/A   Overcast
11:55 AM 21.2 °F 7.8 °F 19.4 °F 93% 30.36 in 10.0 mi WSW 15.0 mph 18.4 mph N/A   Overcast
12:15 PM 21.2 °F 8.9 °F 19.4 °F 93% 30.35 in 10.0 mi WSW 12.7 mph 19.6 mph N/A   Overcast
12:35 PM 23.0 °F 10.1 °F 19.4 °F 86% 30.35 in 10.0 mi WSW 15.0 mph - N/A   Mostly Cloudy
12:55 PM 23.0 °F 8.7 °F 19.4 °F 86% 30.35 in 10.0 mi WSW 18.4 mph 21.9 mph N/A   Mostly Cloudy
1:15 PM 23.0 °F 10.6 °F 17.6 °F 80% 30.35 in 10.0 mi WSW 13.8 mph 24.2 mph N/A   Mostly Cloudy
1:35 PM 23.0 °F 8.7 °F 17.6 °F 80% 30.35 in 10.0 mi WSW 18.4 mph - N/A   Scattered Clouds
1:55 PM 23.0 °F 9.6 °F 17.6 °F 80% 30.35 in 10.0 mi WSW 16.1 mph 23.0 mph N/A   Scattered Clouds
2:15 PM 23.0 °F 10.1 °F 17.6 °F 80% 30.36 in 10.0 mi WSW 15.0 mph - N/A   Mostly Cloudy
2:35 PM 23.0 °F 9.2 °F 14.0 °F 68% 30.36 in 10.0 mi WSW 17.3 mph 26.5 mph N/A   Scattered Clouds
2:55 PM 21.2 °F 7.3 °F 14.0 °F 74% 30.37 in 10.0 mi West 16.1 mph 25.3 mph N/A   Scattered Clouds
3:15 PM 21.2 °F 7.3 °F 12.2 °F 68% 30.37 in 10.0 mi West 16.1 mph 21.9 mph N/A   Clear
3:35 PM 19.4 °F 6.6 °F 12.2 °F 74% 30.38 in 10.0 mi WSW 12.7 mph - N/A   Clear
3:55 PM 19.4 °F 5.5 °F 12.2 °F 74% 30.39 in 10.0 mi West 15.0 mph - N/A   Scattered Clouds
4:15 PM 19.4 °F 6.0 °F 10.4 °F 68% 30.39 in 10.0 mi West 13.8 mph - N/A   Scattered Clouds
4:35 PM 17.6 °F 3.7 °F 10.4 °F 73% 30.39 in 10.0 mi West 13.8 mph 20.7 mph N/A   Clear
4:55 PM 17.6 °F 2.7 °F 8.6 °F 68% 30.40 in 10.0 mi West 16.1 mph 19.6 mph N/A   Clear
5:15 PM 17.6 °F 3.7 °F 8.6 °F 68% 30.41 in 10.0 mi West 13.8 mph - N/A   Clear
5:35 PM 15.8 °F -0.2 °F 8.6 °F 73% 30.41 in 10.0 mi West 17.3 mph 24.2 mph N/A   Clear
5:55 PM 14.0 °F -3.0 °F 8.6 °F 79% 30.42 in 10.0 mi West 18.4 mph 23.0 mph N/A   Clear
6:15 PM 14.0 °F -3.0 °F 8.6 °F 79% 30.42 in 10.0 mi West 18.4 mph 21.9 mph N/A   Clear
6:35 PM 12.2 °F -3.7 °F 8.6 °F 85% 30.44 in 10.0 mi West 15.0 mph 25.3 mph N/A   Clear
6:55 PM 12.2 °F -2.5 °F 6.8 °F 79% 30.44 in 10.0 mi West 12.7 mph 18.4 mph N/A   Clear
7:15 PM 12.2 °F -3.1 °F 8.6 °F 85% 30.45 in 10.0 mi West 13.8 mph - N/A   Clear
7:35 PM 10.4 °F -5.4 °F 5.0 °F 79% 30.45 in 10.0 mi West 13.8 mph - N/A   Clear
7:55 PM 10.4 °F -6.6 °F 5.0 °F 79% 30.45 in 10.0 mi West 16.1 mph 19.6 mph N/A   Clear
8:15 PM 10.4 °F -6.6 °F 5.0 °F 79% 30.45 in 10.0 mi West 16.1 mph - N/A   Scattered Clouds
8:35 PM 8.6 °F -8.9 °F 5.0 °F 85% 30.46 in 10.0 mi West 16.1 mph - N/A   Scattered Clouds
8:55 PM 8.6 °F -9.5 °F 5.0 °F 85% 30.46 in 10.0 mi West 17.3 mph - N/A   Scattered Clouds
9:15 PM 8.6 °F -8.3 °F 3.2 °F 79% 30.45 in 10.0 mi West 15.0 mph - N/A   Mostly Cloudy
9:35 PM 8.6 °F -8.9 °F 3.2 °F 79% 30.45 in 10.0 mi West 16.1 mph 19.6 mph N/A   Mostly Cloudy
9:55 PM 8.6 °F -9.5 °F 3.2 °F 79% 30.45 in 10.0 mi West 17.3 mph - N/A   Scattered Clouds
10:15 PM 6.8 °F -10.0 °F 3.2 °F 85% 30.45 in 10.0 mi West 13.8 mph 17.3 mph N/A   Clear
10:35 PM 6.8 °F -10.0 °F 1.4 °F 79% 30.45 in 10.0 mi West 13.8 mph - N/A   Clear
10:55 PM 6.8 °F -10.0 °F 1.4 °F 79% 30.46 in 10.0 mi West 13.8 mph - N/A   Scattered Clouds
11:15 PM 5.0 °F -11.6 °F 1.4 °F 85% 30.46 in 7.0 mi West 12.7 mph - N/A   Scattered Clouds
11:35 PM 5.0 °F -13.6 °F -0.4 °F 78% 30.46 in 10.0 mi West 16.1 mph 19.6 mph N/A   Clear
11:55 PM 5.0 °F -14.2 °F -0.4 °F 78% 30.46 in 10.0 mi West 17.3 mph 20.7 mph N/A   Clear